This demonstration page uses our WeatherBlox Daily Observations layout. Learn more.

Left ArrowRight Arrow

44.8408, -93.29828

Hourly Observations for October 7, 2021

Temp ( °F °C ) Dew Point ( °F °C ) Humidity (%) Winds ( mph kmh ) Pressure ( in mb ) Visibility ( mi km ) Precip ( " mm )
12:53 am 00:53 Mostly Clear 65 18.3 58 14.4 78 78 SE 8 13 30.13 1020 10 16 N/A
1:53 am 01:53 Mostly Clear 64 17.8 58 14.4 81 81 SE 9 15 30.13 1020 10 16 N/A
2:53 am 02:53 Mostly Cloudy 64 17.8 58 14.4 81 81 SE 10 17 30.14 1021 10 16 N/A
3:53 am 03:53 Cloudy 63 17.2 58 14.4 84 84 SE 9 15 30.14 1021 10 16 N/A
4:53 am 04:53 Mostly Cloudy 62 16.7 57 13.9 84 84 SE 7 11 30.14 1021 10 16 N/A
5:53 am 05:53 Cloudy 62 16.7 57 13.9 84 84 SE 5 7 30.14 1021 10 16 N/A
6:53 am 06:53 Cloudy 62 16.7 57 13.9 84 84 SE 5 7 30.14 1021 10 16 N/A
7:53 am 07:53 Cloudy 62 16.7 57 13.9 84 84 ESE 9 15 30.13 1020 10 16 N/A
8:53 am 08:53 Cloudy 62 16.7 56 13.3 80 80 ESE 12 19 30.13 1020 10 16 N/A
9:53 am 09:53 Cloudy 63 17.2 56 13.3 78 78 ESE 9 15 30.13 1020 10 16 N/A
10:53 am 10:53 Cloudy 64 17.8 56 13.3 75 75 ESE 7 11 30.13 1020 10 16 N/A
11:53 am 11:53 Cloudy 66 18.9 57 13.9 73 73 SE 7 11 30.12 1020 10 16 N/A
12:53 pm 12:53 Mostly Cloudy 69 20.6 58 14.4 68 68 SE 8 13 30.10 1019 10 16 N/A
1:53 pm 13:53 Cloudy 70 21.1 60 15.6 71 71 ESE 8 13 30.07 1018 10 16 N/A
2:05 pm 14:05 Cloudy 70 21.1 60 15.6 71 71 ESE 10 17 30.05 1018 10 16 N/A
2:53 pm 14:53 Cloudy 69 20.6 60 15.6 73 73 ESE 8 13 30.06 1018 10 16 N/A
3:53 pm 15:53 Mostly Cloudy 70 21.1 61 16.1 73 73 ESE 13 20 30.04 1017 10 16 N/A
4:20 pm 16:20 Mostly Cloudy 71 21.7 61 16.1 71 71 ESE 13 20 30.01 1016 10 16 N/A
4:48 pm 16:48 Cloudy 70 21 61 16 73 73 ESE 15 24 30.00 1016 7 11 N/A
4:53 pm 16:53 Mostly Cloudy 69 20.6 61 16.1 76 76 SE 13 20 30.03 1017 10 16 N/A
5:53 pm 17:53 Mostly Cloudy 68 20 61 16.1 78 78 SE 12 19 30.02 1017 10 16 N/A
6:53 pm 18:53 Mostly Cloudy 66 18.9 60 15.6 81 81 ESE 8 13 30.03 1017 10 16 N/A
7:53 pm 19:53 Mostly Cloudy 66 18.9 60 15.6 81 81 SSE 5 7 30.03 1017 10 16 N/A
8:53 pm 20:53 Cloudy 66 18.9 60 15.6 81 81 SSE 3 6 30.03 1017 10 16 N/A
9:02 pm 21:02 Cloudy 66 18.9 60 15.6 81 81 SSE 5 7 30.02 1017 10 16 N/A
9:53 pm 21:53 Cloudy 65 18.3 60 15.6 84 84 SE 5 7 30.03 1017 10 16 N/A
10:35 pm 22:35 Cloudy 65 18.3 61 16.1 87 87 SSE 3 6 30.01 1016 10 16 N/A
10:53 pm 22:53 Cloudy 65 18.3 61 16.1 87 87 N N/A 30.02 1017 10 16 N/A
11:50 pm 23:50 Cloudy 64 18 61 16 88 88 N N/A 30.00 1016 8 13 N/A
11:53 pm 23:53 Cloudy 65 18.3 61 16.1 87 87 N N/A 30.01 1016 8 13 N/A

Powered by AerisWeather